MESAT1

Last updated on Mon Sep 07 2026 00:03:13 GMT+0000 (Coordinated Universal Time)

1 60209U 24125G 26249.59305192 .00068929 00000+0 48537-3 0 9991 2 60209 97.2148 109.4768 0005301 259.0515 101.0153 15.73887192122323
UTC large
Height (km)
Speed (km/s)
/
Latitude / Longitude
Inclination (degrees)
Orbital Period (minutes)
Azimuth
Elevation
Range (km)
Doppler Factor

Next 0 passes for location: London (51.5072 / 0.1276)

No passes found over London.
MESAT1